Flag for U.S.A. Weather past 2 weeks in San Angelo, Texas, U.S.A.

Now
75 °F

Passing clouds.


Feels Like: 77 °F
Forecast: 66 / 86 °F
Wind: 3 mph from East

Location: Mathis Field

Current Time: Sep 14, 2014 at 10:00:35 PM

Latest Report: Sep 14, 2014 at 8:51 PM


Visibility: 10 mi

Pressure: 30.10 "Hg

Humidity: 66%

Dew point: 63 °F

Location of San AngeloLocation

Historic Weather in San Angelo — Graph

°F

San Angelo temperature yesterday

Maximum temperature yesterday: 66 °F (at 5:51 PM)
Minimum temperature yesterday: 53 °F (at 8:51 AM)
Average temperature yesterday: 58 °F

Past Weeks' High & Low Weather Summary

 TemperatureHumidityPressure
High102 °F (Sep 10, 4:51 PM)96% (Sep 7, 5:51 AM)30.32 "Hg (Sep 7, 5:51 AM)
Low53 °F (Sep 13, 8:51 AM)23% (Sep 10, 5:51 PM)29.68 "Hg (Sep 10, 5:51 PM)
Average79 °F63%29.96 "Hg
* Reported Aug 30 8:51 PM — Sep 14 8:51 PM, San Angelo, Weather by CustomWeather, © 2014

Note: Actual official high and low records may vary slightly from our data, if they occured in-between our weather recording intervals... More about our weather records

Advertising

San Angelo weather history for previous 24 hours

 ConditionsComfort  
Time TempWeatherWind HumidityBarometerVisibility
8:51 PM
Sep 14
75 °FPassing clouds.3 mph66%30.10 "Hg10 mi
7:51 PM76 °FPassing clouds.3 mph64%30.11 "Hg10 mi
6:51 PM78 °FSunny.5 mph58%30.10 "Hg10 mi
5:51 PM79 °FSunny.7 mph56%30.11 "Hg10 mi
4:51 PM80 °FOvercast.9 mph54%30.10 "Hg10 mi
3:51 PM79 °FPartly sunny.6 mph56%30.12 "Hg10 mi
2:51 PM78 °FScattered clouds.3 mph58%30.14 "Hg10 mi
1:51 PM77 °FPassing clouds.6 mph58%30.17 "Hg10 mi
12:51 PM72 °FPartly sunny.5 mph68%30.20 "Hg10 mi
11:51 AM67 °FOvercast.3 mph81%30.23 "Hg10 mi
10:51 AM66 °FOvercast.5 mph81%30.22 "Hg10 mi
9:51 AM65 °FOvercast.6 mph81%30.22 "Hg10 mi
8:51 AM64 °FOvercast.7 mph81%30.21 "Hg10 mi
7:51 AM62 °FOvercast.3 mph80%30.20 "Hg10 mi
6:51 AM62 °FOvercast.No wind78%30.18 "Hg10 mi
5:51 AM63 °FOvercast.No wind75%30.17 "Hg10 mi
4:51 AM61 °FOvercast.No wind81%30.17 "Hg10 mi
3:51 AM59 °FOvercast.No wind84%30.18 "Hg10 mi
2:51 AM60 °FOvercast.3 mph80%30.17 "Hg10 mi
1:51 AM60 °FClear.No wind80%30.18 "Hg10 mi
12:51 AM60 °FClear.No wind80%30.19 "Hg10 mi
11:51 PM
Sep 13
61 °FClear.5 mph78%30.21 "Hg10 mi
10:51 PM64 °FMostly cloudy.No wind73%30.21 "Hg10 mi
Weather by CustomWeather, © 2014

See weather overviewHow to use our weather pages